www.pogodaiklimat.ru

Погода и климат >> Архив погоды >> Франция >> Мыс Пертюзато


ПОГОДА на Мысе Пертюзато

  • Прогноз погоды на Мысе Пертюзато
  • Монитор погоды на Мысе Пертюзато

АРХИВ ПОГОДЫ на Мысе Пертюзато

Время (UTC), дата Ветер
(напр.,м/с)
 
Видим.   Явления Облачность Т
(С)
Тd
(С)
f
(%)
Тe
(С)
Тes
(С)
Комфортность P
(гПа)
Po
(гПа)
Тmin
(С)
Tmax
(С)
R
(мм)
R24
(мм)
S
(см)
13 18.08 В 4-6
{6}
н/о н/о +28.9 +21.7 65 +37 +37 очень
душно
1015.8 1002.7
14 18.08 В 4-6
{6}
н/о н/о +28.1 +21.9 69 +36 +36 очень
душно
1015.5 1002.4
15 18.08 В 4-5
{6}
н/о н/о +27.9 +22.4 72 +37 +37 очень
душно
1015.2 1002.1
16 18.08 В 4-6
{6}
н/о н/о +27.4 +22.4 74 +36 +36 очень
душно
1015.0 1001.9
17 18.08 В 3-6
{6}
н/о н/о +26.5 +22.3 78 +35 +35 очень
душно
1014.7 1001.5
18 18.08 В 3
{10}
23 км 4/4 630 м
[Sc diur, vesp]
+25.1 +21.8 82 +32 +32 очень
душно
1014.6 1001.4 +24.0 +29.4
19 18.08 В 3-4
{5}
н/о н/о +24.2 +21.5 85 +31 +31 очень
душно
1015.0 1001.7
20 18.08 В 3-4
{5}
н/о н/о +24.0 +21.9 88 +31 +31 очень
душно
1015.2 1001.9
21 18.08 В 3-4
{4}
н/о н/о +23.8 +21.7 88 +30 +30 очень
душно
1015.5 1002.2
22 18.08 В 2-4
{4}
н/о н/о +23.5 +21.4 88 +30 +30 очень
душно
1015.6 1002.3
23 18.08 В 3-4
{4}
н/о н/о +23.4 +21.5 89 +32 +32 очень
душно
1015.3 1002.0
00 19.08 В 2-4
{4}
н/о н/о +23.3 +21.7 91 +32 +32 очень
душно
1015.4 1002.1
01 19.08 В 2-3
{3}
н/о н/о +23.2 +21.6 91 +31 +31 очень
душно
1015.2 1001.9
02 19.08 В 2-3
{4}
н/о н/о +23.0 +21.6 92 +31 +31 очень
душно
1015.1 1001.8
03 19.08 В 2-3
{3}
18 км ясно +23.0 +22.0 94 +31 +31 очень
душно
1015.2 1001.9
04 19.08 В 3-4
{4}
н/о н/о +23.0 +21.8 93 +31 +31 очень
душно
1014.8 1001.5
05 19.08 В 3-4
{4}
н/о н/о +23.0 +21.6 92 +31 +31 очень
душно
1015.4 1002.1
06 19.08 В 3
{9}
н/о н/о +24.8 +21.7 83 +32 +32 очень
душно
1015.5 1002.2 +22.9 +25.0 0.2
07 19.08 В 3-5
{5}
н/о н/о +26.5 +21.3 73 +34 +34 очень
душно
1015.9 1002.7
08 19.08 В 3-5
{5}
н/о н/о +27.3 +21.8 72 +35 +35 очень
душно
1016.1 1002.9
09 19.08 В 3-5
{5}
23 км 3/3 800 м
[Cu hum]
+28.2 +21.5 67 +36 +43 очень
душно
1016.4 1003.3
10 19.08 В 3-5
{6}
н/о н/о +29.3 +21.5 63 +37 +37 очень
душно
1016.7 1003.6
11 19.08 В 4-5
{6}
н/о н/о +29.4 +21.6 63 +37 +37 очень
душно
1016.5 1003.4
12 19.08 В 3-5
{6}
н/о н/о +30.4 +22.3 62 +39 +39 очень
душно
1016.5 1003.5
13 19.08 В 4-5
{6}
н/о н/о +29.6 +21.5 62 +38 +38 очень
душно
1016.5 1003.4
14 19.08 В 3-5
{6}
н/о н/о +29.8 +21.5 61 +38 +38 очень
душно
1016.4 1003.3
15 19.08 В 4-5
{6}
15 км ясно +28.8 +21.6 65 +37 +42 очень
душно
1016.2 1003.1
16 19.08 В 4-5
{6}
н/о н/о +28.1 +22.1 70 +37 +37 очень
душно
1015.9 1002.8
17 19.08 В 4-5
{6}
н/о н/о +26.7 +22.3 77 +35 +35 очень
душно
1016.3 1003.1
18 19.08 В 3-4
{5}
21 км ясно +25.2 +22.1 83 +33 +33 очень
душно
1016.5 1003.2 +24.9 +31.0
19 19.08 В 2-3
{4}
н/о н/о +24.2 +22.1 88 +31 +31 очень
душно
1016.7 1003.4
20 19.08 В 2-3
{4}
н/о н/о +24.0 +22.3 90 +31 +31 очень
душно
1017.0 1003.7
21 19.08 В 2-4
{4}
н/о н/о +23.9 +22.3 91 +31 +31 очень
душно
1017.1 1003.8
22 19.08 В 2-3
{4}
н/о н/о +23.8 +22.4 92 +31 +31 очень
душно
1017.2 1003.9
23 19.08 В 2-3
{4}
н/о н/о +23.5 +22.1 92 +30 +30 очень
душно
1017.2 1003.9
00 20.08 СВ 2-3
{3}
н/о н/о +23.1 +22.1 94 +31 +31 очень
душно
1017.0 1003.6
01 20.08 В 2-3
{3}
н/о н/о +23.2 +22.4 95 +32 +32 очень
душно
1016.7 1003.4
02 20.08 В 3-4
{4}
н/о н/о +23.2 +22.4 95 +32 +32 очень
душно
1016.2 1002.9
03 20.08 В 3-4
{4}
н/о н/о +23.3 +22.5 95 +32 +32 очень
душно
1016.2 1002.9 0.2
04 20.08 В 3-4
{4}
н/о н/о +23.1 +22.1 94 +31 +31 очень
душно
1016.0 1002.7
05 20.08 В 3-4
{4}
н/о н/о +23.3 +21.9 92 +32 +32 очень
душно
1016.0 1002.7
06 20.08 В 3
{8}
20 км 5/5 1000 м
[Cu hum]
+23.9 +21.6 87 +31 +31 очень
душно
1016.4 1003.1 +22.9 +25.2
07 20.08 В 2-3
{4}
н/о н/о +25.1 +21.8 82 +32 +32 очень
душно
1016.7 1003.4
08 20.08 В 3-4
{4}
н/о н/о +27.6 +21.4 69 +35 +35 очень
душно
1016.7 1003.5
09 20.08 В 3-4
{5}
15 км 1/1 800 м
[Cu hum]
+28.7 +22.0 67 +37 +47 очень
душно
1017.1 1004.0
10 20.08 В 3-4
{5}
н/о н/о +29.1 +21.3 63 +37 +37 очень
душно
1017.1 1004.0
11 20.08 В 3-5
{5}
н/о н/о +30.3 +20.8 57 +38 +38 очень
душно
1016.9 1003.9
12 20.08 В 3-4
{5}
18 км 1/1 800 м
[Cu hum]
+30.3 +20.3 55 +37 +50 очень
душно
1016.6 1003.6
13 20.08 В 3-5
{5}
н/о н/о +30.1 +21.2 59 +38 +38 очень
душно
1016.3 1003.3
14 20.08 В 3-4
{5}
н/о н/о +29.8 +21.2 60 +37 +37 очень
душно
1016.3 1003.2
15 20.08 В 5-4
{9}
20 км 1/1 800 м
[Cu hum]
+29.7 +20.8 59 +37 +40 очень
душно
1016.4 1003.3
16 20.08 В 6-4
{9}
н/о н/о +28.4 +21.7 67 +36 +36 очень
душно
1016.1 1003.0
17 20.08 В 3-3
{7}
н/о н/о +27.6 +22.3 73 +36 +36 очень
душно
1016.4 1003.3
18 20.08 С 1
{5}
15 км 3/3 800 м
[Cu hum]
+26.2 +21.8 77 +34 +34 очень
душно
1016.7 1003.5 +24.0 +31.2
19 20.08 С 1-1
{2}
н/о н/о +24.1 +20.4 80 +30 +30 очень
душно
1017.0 1003.7
20 20.08 СВ 1-1
{1}
н/о н/о +23.9 +21.2 85 +30 +30 очень
душно
1016.9 1003.6
21 20.08 З 1-1
{1}
н/о н/о +23.8 +22.2 91 +31 +31 очень
душно
1016.9 1003.6
22 20.08 ЮВ 1-1
{1}
н/о н/о +23.4 +21.5 89 +32 +32 очень
душно
1016.9 1003.6
23 20.08 З 1-1
{1}
н/о н/о +23.5 +21.4 88 +30 +30 очень
душно
1016.8 1003.5
00 21.08 В 1-2
{2}
н/о н/о +23.6 +21.7 89 +30 +30 очень
душно
1016.5 1003.2
01 21.08 С 1-2
{3}
н/о н/о +23.9 +21.6 87 +31 +31 очень
душно
1016.4 1003.1
02 21.08 З 1-2
{2}
н/о н/о +23.0 +21.1 89 +31 +31 очень
душно
1016.5 1003.1
03 21.08 З 2-3
{3}
14 км ясно +23.0 +20.9 88 +30 +30 очень
душно
1016.7 1003.3
04 21.08 З 3-5
{5}
н/о н/о +23.3 +21.2 88 +31 +31 очень
душно
1016.7 1003.4
05 21.08 З 2-4
{5}
н/о н/о +23.2 +21.5 90 +31 +31 очень
душно
1016.9 1003.5
06 21.08 З 3
{8}
14 км ясно +24.1 +21.8 87 +31 +32 очень
душно
1017.2 1003.9 +22.5 +26.1
07 21.08 З 3-4
{4}
н/о н/о +24.9 +22.0 84 +32 +32 очень
душно
1017.5 1004.2
08 21.08 З 2-3
{4}
н/о н/о +25.6 +21.9 80 +33 +33 очень
душно
1017.7 1004.4
09 21.08 З 2-3
{4}
14 км 4/1 900 м
[Cu med, cong Ac trans]
+26.1 +21.3 75 +33 +42 очень
душно
1017.8 1004.6
10 21.08 З 2-3
{5}
н/о н/о +26.5 +21.5 74 +34 +34 очень
душно
1017.7 1004.5
11 21.08 З 2-3
{3}
н/о н/о +27.9 +21.9 70 +36 +36 очень
душно
1017.3 1004.2
12 21.08 З 2-4
{4}
20 км ясно +27.4 +22.1 73 +36 +52 опасность
солнечного
удара
1016.9 1003.7
13 21.08 З 3-4
{4}
н/о н/о +27.7 +22.0 71 +36 +36 очень
душно
1016.5 1003.4
14 21.08 З 3-4
{4}
н/о н/о +27.5 +22.2 73 +36 +36 очень
душно
1016.6 1003.4
15 21.08 З 3-5
{5}
н/о н/о +27.3 +21.8 72 +35 +35 очень
душно
1016.5 1003.3
16 21.08 З 2-3
{4}
н/о н/о +26.9 +21.6 73 +34 +34 очень
душно
1016.3 1003.1
17 21.08 З 3-3
{5}
н/о н/о +25.7 +21.6 78 +33 +33 очень
душно
1016.2 1003.0
18 21.08 З 2-3
{4}
н/о н/о +24.6 +21.3 82 +31 +31 очень
душно
1016.5 1003.2 +24.1 +28.5
19 21.08 СЗ 1-2
{3}
н/о н/о +23.5 +16.5 65 +27 +27 душно 1017.0 1003.6
20 21.08 ЮЗ 1-1
{1}
н/о н/о +24.6 +17.1 63 +28 +28 душно 1017.3 1004.0
21 21.08 З 1-1
{1}
н/о н/о +24.0 +17.3 66 +28 +28 душно 1017.6 1004.2
22 21.08 З 1-1
{1}
н/о н/о +23.5 +16.8 66 +27 +27 душно 1017.7 1004.3
23 21.08 СВ 2-3
{3}
н/о н/о +23.1 +18.6 76 +29 +29 очень
душно
1017.4 1004.0
00 22.08 СВ 3-3
{3}
н/о н/о +22.7 +19.7 83 +29 +29 очень
душно
1017.2 1003.8
01 22.08 СВ 2-3
{4}
н/о н/о +22.9 +20.8 88 +30 +30 очень
душно
1017.0 1003.6
02 22.08 СВ 2-3
{3}
н/о н/о +23.1 +21.5 91 +31 +31 очень
душно
1016.8 1003.4
03 22.08 СВ 3-4
{4}
18 км ясно +23.4 +22.4 94 +32 +32 очень
душно
1016.5 1003.2
04 22.08 СВ 2-3
{4}
н/о н/о +23.4 +22.4 94 +32 +32 очень
душно
1016.7 1003.4
05 22.08 СВ 2-3
{3}
н/о н/о +23.4 +22.6 95 +32 +32 очень
душно
1017.0 1003.7
06 22.08 В 2
{5}
н/о н/о +24.9 +23.5 92 +34 +34 очень
душно
1017.4 1004.1 +22.7 +24.9 0.2
07 22.08 В 2-3
{3}
н/о н/о +26.1 +23.2 84 +35 +35 очень
душно
1017.2 1004.0
08 22.08 В 2-3
{3}
н/о н/о +28.3 +22.1 69 +37 +37 очень
душно
1017.5 1004.4
09 22.08 В 2
{8}
12 км 8/5 1500 м
[St Ac und]
+29.0 +21.8 65 +37 +40 очень
душно
1017.6 1004.5
10 22.08 В 3-4
{4}
н/о н/о +28.8 +22.1 67 +37 +37 очень
душно
1017.6 1004.5
11 22.08 В 3-4
{4}
н/о н/о +28.9 +21.9 66 +37 +37 очень
душно
1017.8 1004.7
12 22.08 В 3-4
{4}
н/о н/о +28.9 +21.9 66 +37 +37 очень
душно
1017.5 1004.4
13 22.08 В 3-4
{4}
н/о н/о +27.7 +22.4 73 +36 +36 очень
душно
1017.5 1004.3
14 22.08 В 3-4
{4}
н/о н/о +28.5 +22.0 68 +37 +37 очень
душно
1017.2 1004.1
15 22.08 В 3-4
{4}
н/о н/о +27.2 +23.0 78 +36 +36 очень
душно
1017.3 1004.1
16 22.08 В 2-4
{4}
н/о н/о +27.0 +23.3 80 +36 +36 очень
душно
1016.8 1003.6
17 22.08 СВ 1-2
{3}
н/о н/о +26.8 +22.2 76 +35 +35 очень
душно
1016.8 1003.6
18 22.08 В 2-3
{3}
н/о н/о +25.8 +22.9 84 +34 +34 очень
душно
1017.1 1003.9 +24.9 +30.0
19 22.08 В 1-1
{4}
н/о н/о +25.1 +22.6 86 +33 +33 очень
душно
1017.4 1004.1
20 22.08 В 2-2
{2}
н/о н/о +24.8 +22.7 88 +33 +33 очень
душно
1018.3 1005.0
21 22.08 СВ 2-3
{3}
н/о н/о +24.7 +23.3 92 +33 +33 очень
душно
1018.4 1005.1
22 22.08 СВ 2-3
{4}
н/о н/о +22.1 +20.0 88 +28 +28 душно 1018.3 1004.9 0.6
23 22.08 СВ 2-3
{3}
н/о зарница 10/10 2000 м
[Cb cap]
+22.4 +20.7 90 +29 +29 очень
душно
1018.4 1005.0
00 23.08 С 1-2
{3}
н/о н/о +22.9 +21.5 92 +31 +31 очень
душно
1018.2 1004.8 0.6
01 23.08 С 1-1
{2}
н/о н/о +22.8 +20.1 85 +29 +29 очень
душно
1017.5 1004.1
02 23.08 С 2-3
{3}
н/о н/о +22.7 +21.0 90 +30 +30 очень
душно
1017.3 1003.9
03 23.08 СЗ 2-2
{5}
12 км зарница 10/10 2000 м
[Cb cap]
+22.5 +19.9 85 +29 +29 очень
душно
1017.1 1003.7
04 23.08 СЗ 3-2
{5}
н/о н/о +22.9 +19.7 82 +29 +29 очень
душно
1017.0 1003.6
05 23.08 Ю 1-2
{2}
н/о н/о +23.8 +19.7 78 +29 +29 душно 1017.1 1003.8
06 23.08 СВ 1
{6}
н/о н/о +24.9 +22.0 84 +32 +32 очень
душно
1017.6 1004.3 +22.0 +25.8
07 23.08 Ю 1-2
{3}
н/о н/о +25.6 +22.3 82 +33 +33 очень
душно
1017.9 1004.6
08 23.08 ЮВ 1-2
{2}
н/о н/о +26.5 +21.7 75 +34 +34 очень
душно
1018.3 1005.1
09 23.08 ЮВ 2-3
{3}
12 км зарница 10/10 2000 м
[Cb cap]
+28.3 +16.9 50 +32 +32 душно 1018.4 1005.2
10 23.08 В 2-3
{4}
н/о н/о +30.4 +14.9 39 +33 +33 душно 1018.4 1005.3
11 23.08 В 2-4
{4}
н/о н/о +31.4 +15.0 37 +34 +34 душно 1018.3 1005.2
12 23.08 СВ 4
{12}
12 км 8/6 2000 м
[Cb calv Ac cuf]
+29.7 +21.4 61 +38 +40 очень
душно
1017.7 1004.6
13 23.08 СВ 4-6
{7}
н/о н/о +29.0 +20.4 60 +36 +36 очень
душно
1017.5 1004.4
14 23.08 СВ 3-5
{6}
н/о н/о +29.3 +19.9 57 +36 +36 очень
душно
1017.4 1004.3
15 23.08 СВ 3-5
{5}
н/о н/о +29.1 +20.5 60 +36 +36 очень
душно
1017.3 1004.2
16 23.08 СВ 3-5
{5}
н/о н/о +27.6 +20.7 66 +34 +34 очень
душно
1017.4 1004.2
17 23.08 СВ 5
{9}
н/о н/о +26.1 +20.4 71 +32 +32 очень
душно
1017.0 1003.8
18 23.08 СВ 3
{9}
12 км 3/0 2000 м
[Ac lent]
+24.1 +20.0 78 +30 +30 очень
душно
1017.5 1004.2 +24.1 +31.7
19 23.08 СВ 3-5
{5}
н/о н/о +23.2 +18.7 76 +29 +29 душно 1017.7 1004.3
20 23.08 СВ 3-4
{4}
н/о н/о +23.2 +18.3 74 +29 +29 душно 1017.9 1004.5
21 23.08 СВ 3-4
{4}
н/о н/о +23.1 +18.6 76 +29 +29 очень
душно
1017.7 1004.3
22 23.08 СВ 2-3
{3}
н/о н/о +22.8 +19.0 79 +29 +29 очень
душно
1017.5 1004.1
23 23.08 СВ 2-3
{3}
н/о н/о +22.2 +19.0 82 +28 +28 душно 1017.6 1004.2
00 24.08 СВ 3-3
{3}
н/о н/о +22.2 +18.6 80 +27 +27 душно 1017.3 1003.9
01 24.08 СВ 2-3
{3}
н/о н/о +21.6 +17.6 78 +26 +26 душно 1017.2 1003.7
02 24.08 СВ 3-3
{3}
н/о н/о +21.3 +17.3 78 +25 +25 комфорт 1017.1 1003.6
03 24.08 СВ 2-3
{3}
н/о н/о +21.5 +16.7 74 +25 +25 комфорт 1017.0 1003.5
04 24.08 СВ 2-3
{3}
н/о н/о +21.9 +16.4 71 +26 +26 душно 1017.0 1003.6
05 24.08 СВ 2-3
{3}
н/о н/о +22.2 +17.3 74 +27 +27 душно 1017.1 1003.7
06 24.08 СВ 2
{5}
15 км 3/3 1000 м
[Cu med, cong]
+23.9 +18.5 72 +28 +29 душно 1017.2 1003.9 +21.3 +24.1
07 24.08 СВ 2-3
{3}
н/о н/о +26.6 +20.0 67 +33 +33 очень
душно
1017.1 1003.9
08 24.08 СВ 3-4
{4}
н/о н/о +27.9 +20.2 63 +34 +34 очень
душно
1017.2 1004.0
09 24.08 В 3-5
{5}
15 км 4/4 1000 м
[Cu med, cong Ac trans]
+29.5 +18.6 52 +35 +41 очень
душно
1017.3 1004.2
10 24.08 В 3-5
{6}
н/о н/о +29.6 +20.5 58 +36 +36 очень
душно
1017.3 1004.2
11 24.08 В 3-6
{6}
н/о н/о +30.8 +21.3 57 +39 +39 очень
душно
1016.9 1003.9
12 24.08 В 4-6
{7}
15 км 5/5 1000 м
[Cu med, cong Ac trans]
+29.9 +19.3 53 +36 +41 очень
душно
1016.6 1003.5
13 24.08 В 4-5
{6}
н/о н/о +30.3 +20.0 54 +37 +37 очень
душно
1016.2 1003.2
14 24.08 В 3-5
{5}
н/о н/о +30.3 +19.0 51 +36 +36 очень
душно
1015.9 1002.9
15 24.08 В 3-4
{5}
14 км 5/5 1000 м
[Cu med, cong Ac trans]
+29.9 +18.7 51 +35 +38 очень
душно
1015.9 1002.8
16 24.08 СВ 3-4
{4}
н/о н/о +28.9 +19.8 58 +35 +35 очень
душно
1015.5 1002.4
17 24.08 В 3-4
{5}
н/о н/о +27.0 +20.3 67 +33 +33 очень
душно
1015.5 1002.3
18 24.08 СВ 2
{8}
14 км 5/4 1000 м
[Cu med, cong Ac trans]
+25.3 +20.8 76 +32 +32 очень
душно
1016.1 1002.8 +24.0 +31.1
19 24.08 СВ 2-3
{3}
н/о н/о +24.1 +20.2 79 +30 +30 очень
душно
1016.4 1003.1
20 24.08 СВ 2-3
{3}
н/о н/о +23.8 +20.5 82 +30 +30 очень
душно
1016.7 1003.4
21 24.08 В 2-3
{3}
н/о н/о +23.3 +20.2 83 +31 +31 очень
душно
1016.9 1003.5
22 24.08 В 2-2
{3}
н/о н/о +22.9 +20.2 85 +30 +30 очень
душно
1017.0 1003.6
23 24.08 В 1-2
{2}
н/о н/о +22.6 +20.3 87 +29 +29 очень
душно
1016.7 1003.3
00 25.08 СВ 2-2
{2}
н/о н/о +22.0 +20.1 89 +28 +28 душно 1016.4 1003.0
01 25.08 СВ 2-2
{2}
н/о н/о +21.8 +19.7 88 +27 +27 душно 1016.2 1002.8
02 25.08 СВ 2-2
{2}
н/о н/о +21.8 +19.9 89 +27 +27 душно 1016.3 1002.9
03 25.08 СВ 1-2
{2}
н/о н/о +21.7 +19.8 89 +27 +27 душно 1016.0 1002.6
04 25.08 С 2-2
{2}
н/о н/о +21.2 +19.3 89 +26 +26 душно 1015.9 1002.5
05 25.08 СВ 2-2
{2}
н/о н/о +21.5 +19.8 90 +27 +27 душно 1016.1 1002.7
06 25.08 СВ 2
{4}
14 км 1/1 1000 м
[Cu hum]
+23.7 +21.0 85 +30 +31 очень
душно
1016.3 1003.0 +21.2 +25.3
07 25.08 СВ 1-2
{2}
н/о н/о +25.9 +21.8 78 +33 +33 очень
душно
1016.6 1003.4
08 25.08 СВ 1-2
{3}
н/о н/о +28.3 +20.3 62 +35 +35 очень
душно
1016.9 1003.8
09 25.08 В 2-5
{5}
12 км 1/1 1000 м
[Cu hum]
+29.0 +19.0 55 +34 +44 очень
душно
1017.1 1004.0
10 25.08 В 2-3
{5}
н/о н/о +29.9 +20.5 57 +37 +37 очень
душно
1016.8 1003.7
11 25.08 ЮВ 3-4
{4}
н/о н/о +30.0 +19.7 54 +36 +36 очень
душно
1016.3 1003.2
12 25.08 В 2-4
{4}
12 км 1/1 1000 м
[Cu hum]
+31.7 +16.0 39 +35 +49 очень
душно
1015.9 1002.9
13 25.08 СЗ 2-4
{4}
н/о н/о +29.5 +20.1 57 +36 +36 очень
душно
1015.6 1002.5

 

Местоположение метеостанции Мыс Пертюзато (Франция): широта 41.37 долгота 9.17 высота над уровнем моря 116 м.

В архиве по умолчанию представлена погода на Мысе Пертюзато за последнюю неделю. Архивные данные за месяц целиком и за предыдущие месяцы, начиная с января 2011 года, Вы можете получить, выбрав интересующий диапазон дат из раскрывающегося списка и нажав кнопку "Ввод!".


*Определитесь, кто Вы:
робот инопланетянин человек

Внимание! Время в таблицах - всемирное. Для получения местного времени необходимо прибавить поправку, которая равна 1 ч.

Смотрите также архив погоды в соседних городах и на ближайших метеорологических станциях:

Погода в Фигари (Франция) (16 км)
Погода в Ольвии (Италия) (60 км)
Погода в Соленцаре (Франция) (64 км)
Погода в Аяччо (Франция) (68 км)
Погода в Ла Парате (Франция) (76 км)
Погода в Алистро (Франция) (104 км)
Погода в Альгеро (Италия) (111 км)
Погода на Капо Кацция (Италия) (122 км)
Погода в Кальви (Франция) (133 км)
Погода в Бастии (Франция) (134 км)

Пояснения к столбцам:

Ветер - указаны скорость ветра в м/с - средняя за 10 мин, порывы в срок и между сроками (в фигурных скобках) и направление, откуда дует ветер: С - северный, СВ - северо-восточный, В - восточный, ЮВ - юго-восточный, Ю - южный, ЮЗ - юго-западный, З - западный, СЗ - северо-западный.
Видимость - горизонтальная дальность видимости в метрах или километрах. При видимости от 1 до 10 км при отсутствии осадков обычно наблюдается дымка, при ухудшении видимости до 1 км и менее - туман. В сухую погоду видимость может ухудшаться дымом, пылью или мглою.
Явления - указаны атмосферные явления, наблюдавшиеся в срок или в последний час перед сроком; фигурными скобками обозначены явления, наблюдавшиеся между сроками (за 1-3 часа до срока); квадратными скобками обозначены град или гололедные отложения с указанием их диаметра в мм.
Облачность - указаны через наклонную черту общая и нижняя облачность в баллах и высота нижней границы облаков в метрах; квадратными скобками обозначены формы облаков: Ci - перистые, Cs - перисто-слоистые, Cc - перисто-кучевые, Ac - высококучевые, As - высокослоистые, Sc - слоисто-кучевые, Ns - слоисто-дождевые, Cu - кучевые, Cb - кучево-дождевые. Подробнее классификацию облаков см. в Атласе облаков (PDF).
T - Температура воздуха - температура, измеренная на высоте 2 м над землей.
Td - Температура точки росы - температура, при понижении до которой содержащийся в воздухе водяной пар достигнет насыщения.
f - Относительная влажность воздуха - влажноcть воздуха, измеренная на высоте 2 м над землей.
Te - Эффективная температура - температура, которую ощущает одетый по сезону человек в тени. Характеристика душности погоды. При расчете учитывается влияние влажности воздуха и скорости ветра на теплоощущения человека.
Tes - Эффективная температура на солнце - температура, которую ощущает человек, с поправкой на солнечный нагрев. Характеристика знойности погоды. Зависит от высоты солнца над горизонтом, облачности и скорости ветра. Ночью, в пасмурную погоду, а также при ветре 12 м/с и более поправка равна нулю.
P - Атмосферное давление - приведенное к уровню моря атмосферное давление.
Po - Атмосферное давление - измеренное на уровне метеостанции атмосферное давление.
Tmin - Минимальная температура - минимум температуры воздуха на высоте 2 м над землей.
Tmax - Максимальная температура - максимум температуры воздуха на высоте 2 м над землей.
R - Количество осадков - Количество выпавших осадков за период времени, мм. При наведении курсора мыши на число - период времени, за который выпало указанное количество осадков.
R24 - Количество осадков - Количество выпавших осадков за 24 часа, мм.
S - Снежный покров - Высота снежного покрова, см. При наведении курсора мыши на число - состояние снежного покрова и степень покрытия местности в баллах.